CW7222 Weather Reports


Display with metric or nautical units.
time (UTC)temp
F
wind
direction
speed
MPH
gust
MPH
rain 1hr
in
rain 24hr
in
rain mn
in
humidity
%
barometer
mb
20260510074330 64 254 3.0 11.0 0.00 2.52 0.00 76 1010.0
20260510073341 63 230 1.0 13.0 0.00 2.52 0.00 77 1010.0
20260510072349 62 315 2.0 11.0 0.00 2.52 0.00 78 1009.9
20260510071340 62 293 3.0 10.0 0.00 2.52 0.00 79 1010.0
20260510070348 61 278 1.0 10.0 0.00 2.52 0.00 80 1010.0
20260510064341 60 304 2.0 8.0 0.00 2.52 0.00 82 1009.9
20260510062340 59 293 3.0 9.0 0.00 2.52 0.00 83 1009.8
20260510061350 59 300 1.0 10.0 0.00 2.52 0.00 84 1009.9
20260510060337 59 275 4.0 9.0 0.00 2.52 0.00 84 1009.9
20260510055345 58 300 0.0 0.0 0.00 2.52 0.00 85 1009.8
20260510053340 58 217 0.0 7.0 0.00 2.52 0.00 86 1009.9
20260510052348 57 327 3.0 9.0 0.00 2.52 0.00 86 1009.7
20260510051339 57 291 4.0 10.0 0.00 2.52 0.00 87 1009.6
20260510050347 57 278 4.0 12.0 0.00 2.52 0.00 87 1009.6
20260510045335 57 308 5.0 9.0 0.00 2.52 0.00 87 1009.6
20260510044345 57 305 5.0 8.0 0.00 2.52 0.00 87 1009.8
20260510042343 57 297 5.0 8.0 0.00 2.52 0.00 88 1009.8
20260510041331 57 300 5.0 8.0 0.00 2.52 0.00 88 1009.8
20260510040340 57 281 2.0 5.0 0.00 2.52 0.00 89 1009.8
20260510035348 57 300 6.0 8.0 0.00 2.52 0.00 89 1009.8
20260510034333 57 302 5.0 7.0 0.00 2.52 0.00 89 1009.9
20260510033341 57 308 5.0 8.0 0.00 2.52 0.00 90 1009.9
20260510032351 57 308 5.0 7.0 0.00 2.52 0.00 90 1010.0
20260510031337 57 301 5.0 8.0 0.00 2.52 0.00 90 1010.3
20260510030345 57 303 2.0 5.0 0.00 2.52 0.00 90 1010.3
20260510025335 57 300 3.0 5.0 0.00 2.52 0.00 90 1010.4
20260510024342 57 279 3.0 7.0 0.00 2.52 0.00 90 1010.4
20260510023333 57 281 0.0 0.0 0.00 2.52 0.00 90 1010.4
20260510022341 57 312 2.0 5.0 0.00 2.52 0.00 90 1010.2
20260510020342 57 317 0.0 0.0 0.00 2.52 0.00 90 1010.2
20260510015349 56 313 0.0 0.0 0.00 2.52 0.00 90 1010.1
20260510011346 58 316 0.0 0.0 0.00 2.52 0.00 89 1010.4
20260510010332 58 320 0.0 0.0 0.00 2.52 0.00 88 1010.4
20260510005340 58 321 0.0 0.0 0.00 2.52 0.00 88 1010.5
20260510003335 58 324 0.0 0.0 0.00 2.52 0.00 88 1010.6
20260510002347 59 325 0.0 0.0 0.00 2.52 0.00 88 1010.9
20260510001332 59 325 0.0 0.0 0.00 2.52 0.00 87 1011.1
20260510000341 59 325 0.0 0.0 0.00 2.52 0.00 87 1011.1
20260509233349 59 313 6.0 8.0 0.00 2.52 0.00 87 1011.3
20260509232340 59 321 5.0 9.0 0.00 2.52 0.00 87 1011.2
20260509231348 59 323 0.0 8.0 0.00 2.52 0.00 87 1011.3
20260509230335 59 309 6.0 10.0 0.00 2.52 0.00 88 1011.3
20260509224350 59 317 5.0 9.0 0.00 2.52 0.00 88 1011.4
20260509223336 59 302 6.0 9.0 0.00 2.52 0.00 89 1011.4
20260509222347 59 319 5.0 10.0 0.00 2.52 0.00 89 1011.3
20260509221332 59 313 4.0 9.0 0.00 2.52 0.00 89 1011.2
20260509220341 59 314 0.0 0.0 0.00 2.52 0.00 90 1011.2
20260509215349 58 313 2.0 6.0 0.00 2.52 0.50 90 1011.4
20260509214336 58 333 2.0 5.0 0.00 2.52 0.50 90 1011.4
20260509213345 58 318 3.0 5.0 0.00 2.52 0.50 90 1011.4
20260509212339 58 319 0.0 4.0 0.00 2.52 0.50 91 1011.4
20260509211347 58 320 2.0 4.0 0.00 2.52 0.50 91 1011.3
20260509210333 58 346 2.0 4.0 0.00 2.52 0.50 90 1011.3
20260509205340 58 360 2.0 3.0 0.00 2.52 0.50 90 1011.0
20260509204350 59 360 2.0 4.0 0.00 2.52 0.50 90 1010.9
20260509203346 59 55 0.0 0.0 0.00 2.52 0.50 90 1010.9
20260509202332 58 56 0.0 0.0 0.00 2.52 0.50 90 1010.5
20260509201339 59 56 0.0 0.0 0.00 2.52 0.50 90 1010.4
20260509200348 59 56 0.0 0.0 0.00 2.52 0.50 89 1010.4
20260509194345 58 57 0.0 0.0 0.00 2.52 0.50 89 1010.0
20260509191339 58 57 0.0 0.0 0.04 2.52 0.50 88 1009.4
20260509190349 58 57 0.0 5.0 0.04 2.52 0.50 88 1009.4
20260509185336 58 39 1.0 8.0 0.04 2.52 0.50 88 1008.9
20260509184345 59 346 1.0 7.0 0.04 2.52 0.50 88 1008.9
20260509183337 59 350 3.0 6.0 0.08 2.52 0.50 89 1008.9
20260509181339 59 314 0.0 4.0 0.04 2.48 0.50 89 1008.3
20260509180347 59 317 1.0 6.0 0.12 2.48 0.50 89 1008.3
20260509175333 58 296 2.0 10.0 0.28 2.48 0.50 89 1007.4
20260509173336 57 351 2.0 8.0 0.51 2.44 0.49 91 1008.2
20260509170341 58 11 3.0 7.0 1.02 2.36 0.47 91 1009.4
20260509165350 59 91 3.0 6.0 1.02 2.20 0.44 91 1010.3
20260509164338 59 325 0.0 3.0 0.94 2.05 0.41 92 1010.6
20260509163350 59 318 0.0 0.0 0.83 1.89 0.38 91 1010.6
20260509162341 59 202 0.0 0.0 0.67 1.69 0.34 91 1011.3
20260509161350 59 202 0.0 0.0 0.55 1.50 0.30 91 1011.4
20260509160338 60 202 0.0 0.0 0.43 1.30 0.26 91 1011.4
20260509155345 60 101 0.0 0.0 0.47 1.18 0.24 91 1010.2
20260509153348 60 149 0.0 0.0 0.43 1.02 0.20 91 1009.9
20260509152333 60 101 1.0 7.0 0.51 1.02 0.20 91 1008.4
20260509151340 61 50 2.0 11.0 0.55 0.94 0.19 91 1008.5
20260509145338 61 55 3.0 9.0 0.67 0.67 0.13 90 1008.8
20260509144351 62 41 3.0 8.0 0.63 0.63 0.13 90 1010.5
20260509143331 62 58 4.0 11.0 0.59 0.59 0.12 89 1010.5
20260509142340 62 140 0.0 4.0 0.51 0.51 0.10 87 1011.4
20260509141350 63 101 0.0 2.0 0.39 0.39 0.08 86 1011.4
20260509140334 64 113 0.0 0.0 0.16 0.16 0.03 83 1011.4
20260509135341 65 115 0.0 0.0 0.00 0.00 0.00 79 1011.0
20260509134349 65 115 0.0 0.0 0.00 0.00 0.00 75 1010.4
20260509132344 65 43 0.0 9.0 0.00 0.00 0.00 77 1009.6
20260509131332 64 46 0.0 12.0 0.00 0.00 0.00 79 1010.0
20260509130340 64 50 3.0 9.0 0.00 0.00 0.00 80 1010.0
20260509125347 64 84 5.0 15.0 0.00 0.00 0.00 81 1010.4
20260509123341 65 84 1.0 14.0 0.00 0.00 0.00 77 1010.4
20260509122347 65 69 2.0 10.0 0.00 0.00 0.00 76 1010.9
20260509121341 65 143 2.0 10.0 0.00 0.00 0.00 77 1011.4
20260509114349 66 81 2.0 10.0 0.00 0.00 0.00 77 1012.0
20260509113335 66 57 1.0 9.0 0.00 0.00 0.00 78 1012.0
20260509111337 66 82 2.0 11.0 0.00 0.00 0.00 80 1012.0
20260509105333 66 121 2.0 9.0 0.00 0.00 0.00 81 1012.1
20260509104340 66 44 1.0 12.0 0.00 0.00 0.00 82 1012.0
20260509102336 66 92 2.0 14.0 0.00 0.00 0.00 81 1012.0
20260509101348 66 206 1.0 12.0 0.00 0.00 0.00 81 1012.0
20260509100335 66 156 3.0 12.0 0.00 0.00 0.00 81 1012.0
20260509095340 66 143 0.0 8.0 0.00 0.00 0.00 80 1011.9
20260509094348 66 59 2.0 13.0 0.00 0.00 0.00 80 1011.7
20260509093335 66 115 2.0 11.0 0.00 0.00 0.00 81 1011.7
20260509092344 65 73 3.0 10.0 0.00 0.00 0.00 80 1011.4
20260509091332 66 117 0.0 7.0 0.00 0.00 0.00 80 1011.2
20260509090341 66 116 0.0 10.0 0.00 0.00 0.00 80 1011.2
20260509085349 66 132 1.0 10.0 0.00 0.00 0.00 81 1011.1
20260509083345 65 84 2.0 12.0 0.00 0.00 0.00 82 1011.4
20260509082336 65 160 3.0 10.0 0.00 0.00 0.00 81 1011.3
20260509080351 65 112 0.0 11.0 0.00 0.00 0.00 80 1011.3
20260509075336 65 65 0.0 11.0 0.00 0.00 0.00 80 1011.4